Location: Newark
(59.4564°N, 26.6917°E)
Time: 08:38:47
(UTC+00:00)

SR - Pass Details

Date: 29 November 2019
Orbit: 573 x 882 km, 66.7° (Epoch: 05 December)

Event Time Altitude Azimuth Distance (km) Brightness Sun altitude
Rises 10:41:28 0° 197° (SSW) 3,281 ? 8.7°
Reaches altitude 10° 10:43:55 10° 191° (S) 2,398 ? 8.6°
Maximum altitude 10:49:07 42° 122° (ESE) 1,207 ? 8.5°
Drops below altitude 10° 10:54:37 10° 54° (NE) 2,537 ? 8.3°
Sets 10:57:16 0° 48° (NE) 3,491 ? 8.3°
